FENGYUN 1C DEB

Satellite information

Favourite Embed

Satellite Type and Status

DEBRISIN ORBIT

Key statistics

Satellite FENGYUN 1C DEB at a glance.

Uptime

9554

Days in orbit

Revolutions

≈ 14.2

Per day

Orbit

SSO

Sun Synchronous Orbit

Inclination

98.2

Latest

Satellite identification and parameters

Extended collection of information and parameters for FENGYUN 1C DEB.

Object identification

Identified? True

Debris? True

Object name: FENGYUN 1C DEB

International designator: 1999-025ELK

Object number (NORAD): 37694

Object ID (CCSDS): 37694

Country: PEOPLES REPUBLIC OF CHINA (PRC)

Current information (Y/N): Y

RCS size: SMALL

Orbital parameters

Period: 101.767 minutes

Inclination: 98.2058 deg

SMA: 7220.436 km

Apoapsis: 951.039 km

Periapsis: 733.564 km

RAAN: 258.4284 deg

Eccentricy: 0.0150597

Argument of periapsis: 223.1325 deg

Mean anomaly: 202.2071 deg

Mean motion: 14.15003809 rev/day

Mean motion (dot): 0.00002714 rev/day2

B* drag term: 0.001275 1/REarth

Two-line elements (TLE)

Creation date: June 26, 2025, 6:53 p.m.

Reference frame: TEME

Reference center: EARTH

Epoch: June 26, 2025, 11:25 a.m. UTC

TLE line 0: 0 FENGYUN 1C DEB

TLE line 1: 1 37694U 99025ELK 25177.47604348 .00002714 00000-0 12750-2 0 9993

TLE line 2: 2 37694 98.2058 258.4284 0150597 223.1325 202.2071 14.15003809493091

Live tracking on map

Real-time ground track for satellite FENGYUN 1C DEB.

In-orbit conjunctions

A list of the most updated potential collisions computed for object FENGYUN 1C DEB.

Target Orbit TCA Probability of collision Miss distance Type
SCOUT D-1 R/B SSO 2025-05-29 05:25:54 0.0001141424 262.0 (m) ROCKET BODY

Associated space launch

Chinese polar orbiting meteorological satellite

FENGYUN 1C DEB was lifted into orbit during the mission ‘Long March 4B | Feng Yun 1C’, on board a Long March 4B space rocket.

The launch took place on May 10, 1999, 1:33 a.m. from Launch Complex 7.

For more information about the launch, click the button.

Launch to space Long March 4B | Feng Yun 1C
Long March 4B | Feng Yun 1C

Agency: N/A

Status: Launch Successful

Launch date: May 10, 1999, 1:33 a.m. UTC

Rocket: Long March 4B

Launch pad: Launch Complex 7

Location: Taiyuan Satellite Launch Center, People's Republic of China

...

Latest news about this satellite

There are no fresh news available about this satellite. Check back as we update our databases every day.


Newsletter sign-up

Weekly statistics, charts and insights to help you stay on top of the space industry.